Jaipur, India

7:36 AM IST on April 22, 2018 (GMT +0530)
Jaipur

Weather History for VIJP - June, 2013

Change the Weather History Date:

Friday, June 21, 2013

  Actual Average Record
Temperature  
Mean Temperature 88 °F -  
Max Temperature 102 °F - - ()
Min Temperature 74 °F - - ()
Cooling Degree Days 23    
Growing Degree Days 38 (Base 50)    
Moisture  
Dew Point 68 °F    
Average Humidity 43    
Maximum Humidity 70    
Minimum Humidity 22    
Precipitation  
Precipitation 0.00 in - - ()
Sea Level Pressure  
Sea Level Pressure 29.52 in    
Wind  
Wind Speed 7 mph ()    
Max Wind Speed 13 mph    
Max Gust Speed -    
Visibility 2.1 miles    
Events      
T = Trace of Precipitation, MM = Missing Value Source: Averaged Metar Reports

Daily Weather History Graph

Daily Weather History Graph

Search for Another Location

Airport or City:

Astronomy

Jun. 21, 2013 Rise Set
Actual Time 5:33 AM IST 7:23 PM IST
Civil Twilight 5:07 AM IST 7:49 PM IST
Nautical Twilight 4:35 AM IST 8:21 PM IST
Astronomical Twilight 4:02 AM IST 8:55 PM IST
Moon 5:09 PM IST (6/21) 3:16 AM IST (6/21)
Length of Visible Light 14h 42m
Length of Day
13h 49m
Waxing Gibbous, 93% of the Moon is Illuminated
Jun 21
Waxing Gibbous
Jun 23
Full
Jun 30
Last Quarter
Jul 8
New
Jul 16
First Quarter

Hourly Weather History & Observations

Time (IST) Temp. Heat Index Dew Point Humidity Pressure Visibility Wind Dir Wind Speed Gust Speed Precip Events Conditions
12:00 AM 89.6 °F 96.2 °F 71.6 °F 55% 29.53 in 1.9 mi WNW 3.5 mph - N/A   Haze
1:00 AM 89.6 °F 96.2 °F 71.6 °F 55% 29.53 in 1.9 mi WNW 4.6 mph - N/A   Haze
2:00 AM 89.6 °F 93.4 °F 68.0 °F 49% 29.53 in 1.9 mi NW 5.8 mph - N/A   Haze
2:30 AM 89 °F - 68 °F 41% 29.44 in 1 mi NW 5.8 mph - -   Haze
3:00 AM 87.8 °F 91.4 °F 68.0 °F 52% 29.53 in 1.9 mi NW 5.8 mph - N/A   Haze
5:30 AM 85 °F - 69 °F 49% 29.48 in 1 mi NW 4.6 mph - -   Haze
6:00 AM 86.0 °F 90.4 °F 69.8 °F 58% 29.56 in 1.9 mi WNW 9.2 mph - N/A   Haze
7:00 AM 87.8 °F 93.8 °F 71.6 °F 58% 29.59 in 1.9 mi WNW 9.2 mph - N/A   Haze
8:00 AM 89.6 °F 96.2 °F 71.6 °F 55% 29.59 in 1.9 mi Variable 9.2 mph - N/A   Haze
8:30 AM 90 °F - 71 °F 44% 29.51 in 1 mi NW 11.5 mph - -   Haze
9:00 AM 91.4 °F 96.8 °F 69.8 °F 49% 29.59 in 1.9 mi WNW 12.7 mph - N/A   Haze
9:30 AM 91.4 °F 96.8 °F 69.8 °F 49% 29.59 in 2.2 mi NW 11.5 mph - N/A   Haze
10:00 AM 93.2 °F 100.5 °F 71.6 °F 49% 29.59 in 2.5 mi WNW 11.5 mph - N/A   Haze
11:00 AM 95.0 °F 101.3 °F 69.8 °F 44% 29.56 in 2.5 mi WNW 11.5 mph - N/A   Haze
11:30 AM 96.8 °F 103.1 °F 69.8 °F 41% 29.59 in 2.5 mi NW 10.4 mph - N/A   Haze
12:00 PM 98.6 °F 105.5 °F 69.8 °F 39% 29.56 in 2.5 mi West 12.7 mph - N/A   Haze
2:00 PM 100.4 °F 106.3 °F 68.0 °F 35% 29.53 in 2.5 mi West 12.7 mph - N/A   Haze
2:30 PM 101 °F - 65 °F 22% 29.42 in 2 mi WNW 9.2 mph - -   Haze
3:00 PM 102.2 °F 106.9 °F 66.2 °F 31% 29.53 in 2.5 mi WNW 6.9 mph - N/A   Haze
4:00 PM 102.2 °F 105.5 °F 64.4 °F 29% 29.50 in 2.5 mi West 11.5 mph - N/A   Haze
5:00 PM 100.4 °F 103.6 °F 64.4 °F 31% 29.47 in 2.5 mi West 10.4 mph - N/A   Haze
5:30 PM 93 °F - 65 °F 29% 29.37 in 2 mi WNW 11.5 mph - -   Haze
6:00 PM 100.4 °F 103.6 °F 64.4 °F 31% 29.47 in 2.5 mi West 11.5 mph - N/A   Haze
7:00 PM 98.6 °F 101.0 °F 64.4 °F 32% 29.47 in 2.5 mi West 9.2 mph - N/A   Haze
8:00 PM 95.0 °F 97.0 °F 64.4 °F 36% 29.50 in 2.5 mi West 6.9 mph - N/A   Haze
8:30 PM 81 °F - 73 °F 70% 29.47 in 2 mi WSW 6.9 mph - -   Haze
9:00 PM 95.0 °F 98.5 °F 66.2 °F 39% 29.50 in 2.5 mi West 11.5 mph - N/A   Haze
10:00 PM 93.2 °F 97.7 °F 68.0 °F 44% 29.53 in 2.5 mi West 11.5 mph - N/A   Haze
11:00 PM 93.2 °F 97.7 °F 68.0 °F 44% 29.53 in 2.5 mi West 11.5 mph - N/A   Haze
11:30 PM 94 °F - 67 °F 32% 29.45 in 2 mi West 11.5 mph - -   Haze